[[{"header":{"parameterUnit":"m.s-1","parameterCategory":1,"la1":30.2991,"la2":30.254,"lo1":-89.0895,"lo2":-89.0444,"dy":0.0017,"dx":0.0017,"nx":28,"ny":28,"refTime":"2024-02-21T09:00:00:Z","depth":0,"parameterNumber":2,"parameterNumberName":"U-component_of_WINDS"},"data":[0,0,0,0,0,0,0,0,0,0,0,0,0,0,0,0,0,0,0,0,0,0,0,0,0,0,0,0,0,0,0,0,0,0,0,0,0,0,0,0,0,0,0,0,0,0,0,0,0,0,0,0,0,0,0,0,0,0,-0.9393,-0.9393,0,-0.9385,-0.9385,-0.9385,-0.938,-0.938,-0.938,-0.938,-0.937,-0.937,-0.937,0,0,0,0,0,0,0,0,0,0,0,0,0,-0.9403,-0.9403,-0.9393,-0.9393,-0.9393,-0.9385,-0.9385,-0.9385,-0.938,-0.938,-0.938,-0.938,-0.937,-0.937,-0.937,0,0,0,0,0,0,0,0,0,0,0,0,0,-0.9397,-0.9403,-0.9393,-0.9389,-0.9389,-0.9385,-0.9385,-0.9385,-0.938,-0.938,-0.938,-0.938,-0.937,-0.937,-0.9369,-0.9368,0,0,-0.9368,-0.9368,0,0,0,0,0,0,0,0,-0.9398,-0.9397,-0.939,-0.9389,-0.9389,-0.9383,-0.9385,-0.9379,-0.938,-0.9383,-0.938,-0.938,-0.9374,-0.9374,-0.9372,-0.9367,-0.9367,-0.9368,-0.9368,-0.9368,-0.9368,0,0,0,0,0,0,0,-0.9398,-0.9397,-0.939,-0.939,-0.9389,-0.9388,-0.9387,-0.9384,-0.9379,-0.9383,-0.9383,-0.9382,-0.9374,-0.9373,-0.9372,-0.9367,-0.9368,-0.9368,-0.9368,-0.9368,-0.9361,-0.9361,0,0,0,0,0,0,-0.9399,-0.9398,-0.939,-0.9389,-0.9393,-0.9388,-0.9387,-0.9385,-0.9379,-0.9378,-0.9382,-0.9382,-0.9373,-0.9372,-0.9372,-0.937,-0.9368,-0.9368,-0.9367,-0.9361,-0.9361,-0.9361,0,0,0,0,0,0,-0.9399,-0.9398,-0.939,-0.9393,-0.9392,-0.9388,-0.9386,-0.9385,-0.9383,-0.9378,-0.9377,-0.9381,-0.9373,-0.9372,-0.9369,-0.9369,-0.9367,-0.9367,-0.9361,-0.9361,-0.9361,-0.9365,0,0,0,0,0,0,-0.94,-0.9399,-0.9398,-0.9393,-0.9392,-0.9388,-0.9386,-0.9385,-0.9383,-0.9383,-0.9377,-0.9376,-0.9373,-0.937,-0.9369,-0.9369,-0.9367,-0.9361,-0.9361,-0.9361,-0.9365,-0.9366,-0.9366,0,0,0,0,0,-0.94,-0.9399,-0.9398,-0.9397,-0.9391,-0.9388,-0.9387,-0.9384,-0.9383,-0.9382,-0.9379,-0.9376,-0.9369,-0.9369,-0.9368,-0.9368,-0.9361,-0.9361,-0.9361,-0.9365,-0.9366,-0.9366,0,0,0,0,0,0,-0.9403,-0.9398,-0.9397,-0.9394,-0.9392,-0.9387,-0.9386,-0.9384,-0.9381,-0.9381,-0.9377,-0.9375,-0.9373,-0.937,-0.937,-0.9367,-0.9365,-0.9365,-0.9368,-0.9369,-0.9369,-0.937,-0.9367,0,0,0,0,0,-0.9403,-0.9401,-0.9397,-0.9395,-0.9394,-0.9391,-0.9389,-0.9387,-0.9383,-0.9382,-0.9379,-0.9375,-0.9372,-0.937,-0.9367,-0.9365,-0.9364,-0.9365,-0.9365,-0.9365,-0.9365,-0.9364,-0.9364,-0.9361,-0.9361,-0.9361,0,0,-0.9404,-0.9401,-0.94,-0.9396,-0.9394,-0.9392,-0.9389,-0.9387,-0.9386,-0.9382,-0.9379,-0.9376,-0.9372,-0.937,-0.9368,-0.9367,-0.9366,-0.9365,-0.9366,-0.9365,-0.9364,-0.9364,-0.9365,-0.9361,-0.9361,-0.9361,0,0,-0.9404,-0.9402,-0.94,-0.9398,-0.9395,-0.9393,-0.9392,-0.9388,-0.9387,-0.9384,-0.9381,-0.9379,-0.9374,-0.9372,-0.937,-0.937,-0.9368,-0.937,-0.9371,-0.937,-0.9371,-0.9371,-0.9371,-0.9371,-0.937,-0.937,-0.937,0,-0.9405,-0.9402,-0.9399,-0.9398,-0.9396,-0.9394,-0.9392,-0.939,-0.9386,-0.9385,-0.9384,-0.9378,-0.9375,-0.9372,-0.9373,-0.9371,-0.9371,-0.937,-0.9371,-0.9371,-0.9371,-0.9371,-0.9372,-0.937,-0.937,-0.937,-0.937,0,-0.9404,-0.9402,-0.9401,-0.9398,-0.9396,-0.9394,-0.9392,-0.939,-0.9389,-0.9386,-0.9384,-0.9381,-0.9377,-0.9377,-0.9375,-0.9374,-0.9373,-0.9372,-0.937,-0.9372,-0.9372,-0.9372,-0.937,-0.937,-0.937,-0.937,0,0,-0.9404,-0.9401,-0.94,-0.9399,-0.9396,-0.9394,-0.9393,-0.939,-0.9389,-0.9387,-0.9385,-0.9382,-0.9381,-0.9379,-0.9376,-0.9376,-0.9377,-0.9374,-0.9374,-0.9375,-0.9376,-0.9377,-0.9377,-0.9376,-0.9376,-0.9376,-0.9377,0,-0.9404,-0.9401,-0.9399,-0.9397,-0.9396,-0.9394,-0.9393,-0.939,-0.9389,-0.9387,-0.9385,-0.9383,-0.9381,-0.938,-0.9379,-0.9377,-0.9377,-0.9377,-0.9374,-0.9374,-0.9375,-0.9377,-0.9378,-0.9379,-0.9377,-0.9377,-0.9377,0,-0.9402,-0.9401,-0.9399,-0.9397,-0.9396,-0.9395,-0.9393,-0.9391,-0.9389,-0.9388,-0.9386,-0.9384,-0.9383,-0.9382,-0.938,-0.938,-0.9378,-0.9377,-0.9377,-0.9376,-0.9375,-0.9377,-0.9379,-0.9379,-0.9377,-0.9377,-0.9377,0,-0.9403,-0.9401,-0.9399,-0.9398,-0.9396,-0.9395,-0.9394,-0.9392,-0.9391,-0.9389,-0.9388,-0.9386,-0.9385,-0.9383,-0.9381,-0.938,-0.9379,-0.9377,-0.9378,-0.9378,-0.9377,-0.9377,-0.9379,-0.9377,-0.9377,-0.9377,-0.9377,0,-0.9403,-0.9402,-0.94,-0.9399,-0.9398,-0.9396,-0.9395,-0.9393,-0.9392,-0.9391,-0.9389,-0.9388,-0.9385,-0.9383,-0.9382,-0.938,-0.938,-0.9379,-0.9378,-0.9379,-0.9379,-0.9377,-0.9377,-0.9377,-0.9377,-0.9377,-0.9377,0,-0.9403,-0.9402,-0.94,-0.9398,-0.9398,-0.9397,-0.9395,-0.9395,-0.9393,-0.9392,-0.9391,-0.9389,-0.9388,-0.9385,-0.9383,-0.9382,-0.9381,-0.938,-0.9381,-0.9381,-0.9381,-0.9381,-0.9383,-0.9383,-0.938,-0.938,-0.9381,0,-0.9403,-0.9402,-0.94,-0.94,-0.9399,-0.9398,-0.9397,-0.9395,-0.9394,-0.9393,-0.9392,-0.939,-0.9389,-0.9387,-0.9385,-0.9383,-0.9382,-0.9383,-0.9382,-0.9382,-0.9382,-0.9382,-0.9382,-0.9383,-0.9383,-0.9383,-0.9383,0,-0.9402,-0.9402,-0.9401,-0.94,-0.9399,-0.9398,-0.9397,-0.9397,-0.9395,-0.9394,-0.9393,-0.9392,-0.939,-0.9388,-0.9387,-0.9385,-0.9384,-0.9383,-0.9383,-0.9384,-0.9385,-0.9384,-0.9382,-0.9383,-0.9383,-0.9383,-0.9383,-0.9383,-0.9402,-0.9402,-0.9401,-0.94,-0.9399,-0.9398,-0.9398,-0.9397,-0.9396,-0.9394,-0.9394,-0.9392,-0.9391,-0.9389,-0.9387,-0.9387,-0.9386,-0.9386,-0.9386,-0.9386,-0.9386,-0.9385,-0.9386,-0.9386,-0.9386,-0.9386,-0.9386,0,-0.9402,-0.9401,-0.94,-0.9399,-0.9399,-0.9398,-0.9397,-0.9397,-0.9396,-0.9395,-0.9394,-0.9393,-0.9392,-0.939,-0.9389,-0.9389,-0.9388,-0.9388,-0.9388,-0.9388,-0.9386,-0.9387,-0.9389,-0.9389,-0.9389,-0.9389,-0.9389,-0.9389,-0.9401,-0.94,-0.94,-0.9399,-0.9399,-0.9398,-0.9398,-0.9397,-0.9396,-0.9395,-0.9395,-0.9394,-0.9393,-0.9392,-0.9391,-0.939,-0.939,-0.939,-0.939,-0.9388,-0.9388,-0.9388,-0.9388,-0.939,-0.939,-0.9391,-0.9391,-0.9391]},{"header":{"parameterUnit":"m.s-1","parameterCategory":1,"la1":30.2991,"la2":30.254,"lo1":-89.0895,"lo2":-89.0444,"dy":0.0017,"dx":0.0017,"nx":28,"ny":28,"refTime":"2024-02-21T09:00:00:Z","depth":0,"parameterNumber":3,"parameterNumberName":"V-component_of_WINDS"},"data":[0,0,0,0,0,0,0,0,0,0,0,0,0,0,0,0,0,0,0,0,0,0,0,0,0,0,0,0,0,0,0,0,0,0,0,0,0,0,0,0,0,0,0,0,0,0,0,0,0,0,0,0,0,0,0,0,0,0,2.4756,2.4756,0,2.474,2.474,2.474,2.4754,2.4755,2.4755,2.4756,2.4735,2.4734,2.4733,0,0,0,0,0,0,0,0,0,0,0,0,0,2.4794,2.4793,2.4756,2.4756,2.4755,2.474,2.474,2.474,2.4754,2.4755,2.4756,2.4756,2.4735,2.4734,2.4732,0,0,0,0,0,0,0,0,0,0,0,0,0,2.4777,2.4793,2.4756,2.4761,2.4761,2.474,2.474,2.474,2.4754,2.4755,2.4756,2.4757,2.4736,2.4734,2.4732,2.4704,0,0,2.4727,2.4726,0,0,0,0,0,0,0,0,2.4778,2.4776,2.476,2.476,2.4761,2.475,2.4746,2.4728,2.4754,2.4756,2.4756,2.4757,2.4739,2.4737,2.4732,2.4703,2.4702,2.4727,2.4726,2.4725,2.4725,0,0,0,0,0,0,0,2.4779,2.4777,2.4749,2.476,2.476,2.4762,2.4761,2.4742,2.4743,2.4756,2.4757,2.4756,2.4739,2.4733,2.4731,2.4702,2.4727,2.4726,2.4725,2.4724,2.465,2.4649,0,0,0,0,0,0,2.4781,2.4777,2.475,2.4749,2.4772,2.4761,2.476,2.4753,2.4743,2.4742,2.4755,2.4756,2.4736,2.4733,2.4731,2.4698,2.4725,2.4724,2.4723,2.4651,2.465,2.4649,0,0,0,0,0,0,2.4781,2.4778,2.4751,2.4764,2.476,2.4759,2.4751,2.4752,2.4746,2.4742,2.4742,2.4749,2.4736,2.4733,2.4711,2.4697,2.4723,2.4721,2.4652,2.465,2.4649,2.4632,0,0,0,0,0,0,2.4782,2.4778,2.4768,2.4763,2.476,2.4732,2.4751,2.4751,2.4744,2.4746,2.4737,2.4736,2.4737,2.4714,2.471,2.4696,2.472,2.4653,2.4651,2.465,2.4633,2.463,2.4627,0,0,0,0,0,2.4784,2.4763,2.4768,2.4764,2.4748,2.4732,2.4729,2.4732,2.4743,2.4732,2.473,2.4736,2.47,2.4711,2.4707,2.4692,2.4654,2.4652,2.465,2.4635,2.4631,2.4627,0,0,0,0,0,0,2.4764,2.4762,2.4768,2.4745,2.4739,2.4734,2.4721,2.4727,2.4717,2.4719,2.4721,2.4719,2.4696,2.4692,2.4705,2.4665,2.4678,2.4675,2.4669,2.4664,2.4661,2.4663,2.4719,0,0,0,0,0,2.4758,2.4746,2.4744,2.4724,2.4721,2.4722,2.4715,2.4718,2.4711,2.4708,2.4703,2.4695,2.4682,2.4673,2.466,2.4633,2.4631,2.462,2.4617,2.4614,2.4612,2.4598,2.4593,2.4642,2.4642,2.4642,0,0,2.4743,2.4741,2.4733,2.472,2.4716,2.4703,2.4719,2.4705,2.4695,2.4705,2.4685,2.4681,2.4672,2.4648,2.4636,2.4643,2.4598,2.4612,2.4609,2.4608,2.4595,2.459,2.4586,2.464,2.464,2.4641,0,0,2.4711,2.4708,2.4691,2.4687,2.4681,2.4681,2.4677,2.4672,2.4671,2.4651,2.4659,2.4646,2.4623,2.4617,2.461,2.4576,2.4582,2.4572,2.4554,2.454,2.4537,2.4533,2.4522,2.4518,2.4569,2.4569,2.4569,0,2.4693,2.4676,2.4681,2.4667,2.4661,2.4672,2.4655,2.4649,2.4639,2.4634,2.4642,2.4614,2.4608,2.4583,2.4575,2.4569,2.4564,2.4573,2.4537,2.4534,2.4531,2.452,2.4515,2.4568,2.4568,2.4568,2.4568,0,2.4655,2.4643,2.463,2.4622,2.4614,2.4599,2.4601,2.4592,2.4596,2.4596,2.4575,2.4569,2.4556,2.455,2.4552,2.4525,2.4529,2.4537,2.4551,2.4525,2.4515,2.451,2.4566,2.4567,2.4567,2.4567,0,0,2.461,2.4606,2.4601,2.4598,2.4592,2.4582,2.4566,2.4556,2.4549,2.454,2.4527,2.4508,2.4516,2.4508,2.451,2.4498,2.4473,2.4507,2.4507,2.4502,2.4443,2.4438,2.4433,2.4476,2.4476,2.4475,2.4444,0,2.4578,2.4554,2.4558,2.4533,2.4522,2.4532,2.4518,2.4513,2.4512,2.4501,2.4499,2.4486,2.4497,2.4493,2.4481,2.4478,2.4461,2.4481,2.4464,2.4463,2.4467,2.4427,2.4422,2.4393,2.444,2.4439,2.4439,0,2.4538,2.4531,2.4506,2.4503,2.4498,2.4486,2.4477,2.4467,2.446,2.446,2.4453,2.4457,2.4441,2.4455,2.4432,2.4445,2.4438,2.4436,2.4435,2.4434,2.445,2.4426,2.4383,2.4379,2.4432,2.4433,2.4433,0,2.4509,2.4493,2.4476,2.4473,2.4468,2.446,2.4457,2.4452,2.4445,2.4436,2.4432,2.4421,2.4415,2.4405,2.4406,2.4416,2.4383,2.4397,2.4382,2.4382,2.4375,2.4375,2.4331,2.4369,2.4369,2.437,2.437,0,2.4473,2.4458,2.4463,2.4453,2.4435,2.444,2.4422,2.4421,2.4416,2.4405,2.4411,2.44,2.4402,2.439,2.4391,2.4372,2.4369,2.4368,2.4368,2.4368,2.4368,2.4364,2.4366,2.4368,2.4369,2.4369,2.4369,0,2.4438,2.4441,2.4424,2.4422,2.4421,2.4408,2.4406,2.4395,2.4395,2.4381,2.4378,2.4377,2.4364,2.4364,2.4348,2.4349,2.4326,2.4328,2.4329,2.433,2.4315,2.4317,2.4267,2.4261,2.4303,2.4302,2.4302,0,2.4416,2.4404,2.4402,2.4396,2.4393,2.4383,2.4377,2.4381,2.4374,2.4366,2.4357,2.4345,2.4336,2.4314,2.4311,2.43,2.4302,2.4285,2.43,2.43,2.4302,2.4303,2.4302,2.4283,2.4282,2.4282,2.4281,0,2.4376,2.4378,2.437,2.4363,2.4356,2.4349,2.4344,2.4338,2.4341,2.4333,2.4321,2.4314,2.4299,2.4287,2.4276,2.4272,2.4277,2.4277,2.4273,2.4273,2.4274,2.4274,2.4322,2.4278,2.4278,2.4279,2.4279,2.4279,2.4347,2.4338,2.4335,2.4326,2.4322,2.4317,2.4308,2.4307,2.4298,2.4288,2.429,2.4276,2.427,2.4256,2.4251,2.424,2.4245,2.4239,2.4238,2.4237,2.4236,2.4275,2.4237,2.4237,2.4238,2.4238,2.4238,0,2.4309,2.4307,2.4299,2.4292,2.4284,2.4292,2.4286,2.4279,2.4267,2.4262,2.4253,2.4239,2.4228,2.4225,2.4213,2.4205,2.4207,2.4202,2.4203,2.4202,2.4231,2.4236,2.42,2.42,2.42,2.42,2.42,2.42,2.4288,2.4273,2.4275,2.4258,2.4256,2.4244,2.424,2.4235,2.4231,2.4216,2.4207,2.4206,2.4201,2.419,2.4179,2.4179,2.4174,2.4168,2.4168,2.4196,2.42,2.4203,2.4208,2.4167,2.4167,2.414,2.414,2.414]}]]